Dauntless Aviation
Airports Europe United Kingdom
EGLC
LCY

London City Airport

London, UNITED KINGDOM

Airport Info
Suggest Updated Information for this Airport

Location

Latitude / Longitude: 51°30'19"N / 0°3'19"E
  51°30.318'N / 0°3.318'E
  51.5053 / 0.0553

Nearby radio navigation aids

LCY CITY NDB on field.

Runway Information

Runway 10 /28

Dimensions: 4948 x 98 ft.
Surface: ASP
 
Runway 10
Runway 28
Latitude: 51.505528 51.504922
Longitude: 0.045753 0.064953
Elevation: 16 ft. 16 ft.
Runway true heading: 91.1 271.1
 

Instrument Procedures

  Aerodrome Chart
  Aircraft Parking/Docking Chart
  Control Zone and Control Area Chart

STARs (Standard Terminal Arrivals)

  Standard Instrument Arrival Coding Tables Rwy 09/27 JACKO 1L/ 1M
  Standard Instrument Arrival Coding Tables Rwy 09/27 GODLU 1G/ 1H
  Standard Instrument Arrival Coding Tables Rwy 09/27 GODLU 1J/ 1K/ 1L
  RNAV1 (DME/DME or GNSS) Transition Arrival Chart - Instrument Rwy 27 LAVNO 1G 1J
  RNAV1 (DME/DME or GNSS) Transition Arrival Chart - Instrument Rwy 09 ODLEG 1G 1J
  RNAV5 (VOR/DME/ DME/DME or GNSS) STAR - Instrument Rwy 09/27 JACKO 1A 1B 1D
  RNAV5 (VOR/DME/ DME/DME or GNSS) STAR - Instrument Rwy 09/27 GODLU 1A 1C 1D 1F
  RNAV5 (VOR/DME/ DME/DME or GNSS) STAR - Instrument Rwy 09/27 JACKO 1H
  RNAV5 (VOR/DME/ DME/DME or GNSS) STAR - Instrument Rwy 09/27 JACKO 1L 1M
  RNAV5 (VOR/DME/ DME/DME or GNSS) STAR - Instrument Rwy 09/27 GODLU 1G 1H
  RNAV5 (VOR/DME/ DME/DME or GNSS) STAR - Instrument Rwy 09/27 GODLU 1J 1K 1L
  Standard Instrument Arrival Coding Tables Rwy 09/27 JACKO 1A/ 1B/ 1D
  Standard Instrument Arrival Coding Tables Rwy 09/27 GODLU 1A/ 1C/ 1D/ 1F
  Standard Instrument Arrival Coding Tables Rwy 09/27 JACKO 1H

IAPs (Instrument Approach Procedures)

  ILS (5.5°GP) /DME/NDB (L) Rwy 09 (Aircraft CAT A/B/C)
  LOC/DME/NDB (L) Rwy 09
  LOC/DME/NDB (L) Rwy 27 (Aircraft CAT A/B/C)
  Visual Approach Profile Rwy 27
  Visual Approach Profile Rwy 09
  ILS (5.5°GP) /DME/NDB (L) Rwy 27 (Aircraft CAT A/B/C)
  Aerodrome Information (Textual)
  Transition Coding Tables Rwy 27 LAVNO 1G/ 1J
  Transition Coding Tables Rwy 09 ODLEG 1G 1J
  RNAV Hold Coding Tables GODLU/ OKVAP/ JACKO/ ROPMU
  ATC Surveillance Minimum Altitude Chart

Departure Procedures

  Standard Instrument Departure Coding Tables Rwy 09 BPK 1H/ CPT 1H
  Standard Instrument Departure Coding Tables Rwy 09 CLN 1H/ Rwy 27 CLN 1A
  SID - Instrument (SID) Rwy 09/27 DVR 5T 5U LYD 5T 5U
  SID - Instrument (SID) Rwy 09/27 CLN 7T 7U
  SID - Instrument (SID) Rwy 09/27 BPK 5T 5U CPT 6T 6U
  RNAV1 (DME/DME or GNSS) SID - Instrument (SID) Rwy 27 BPK 1A CPT 1A
  RNAV1 (DME/DME or GNSS) SID - Instrument (SID) Rwy 09 BPK 1H CPT 1H
  RNAV1 (DME/DME or GNSS) SID - Instrument (SID) Rwy 09/27 CLN 1A 1H
  Standard Instrument Departure Coding Tables Rwy 27 BPK 1A/ CPT 1A
  RNAV1 (DME/DME or GNSS) SID - Instrument (SID) Rwy 09/27 EKNIV 1A 1H
  Standard Instrument Departure Coding Tables Rwy 09 EKNIV 1H/ Rwy 27 EKNIV 1A
Satellite photo at:
Airport distance calculator
From:
Weather Reports

METAR

EGLC

EGLC 121350Z AUTO 24006G19KT 170V310 9999 NCD 05/00 Q1010
EGKB
11.4nm S
EGKB 121350Z 20006KT 170V230 CAVOK 02/00 Q1009 R21/2900//
EGWU
17.8nm W
EGWU 121350Z 22003KT CAVOK 04/00 Q1009 NOSIG
EGLL
18.9nm SW
EGLL 121350Z AUTO 20007KT 160V240 9999 NCD 04/00 Q1009 NOSIG
EGSS
23.5nm N
EGSS 121350Z AUTO 21006KT 9999 NCD 01/M01 Q1009
EGKK
23.8nm S
EGKK 121350Z 20005KT CAVOK 03/00 Q1009

TAF

EGLC
TAF EGLC 121102Z 1212/1221 23007KT 9999 FEW020 PROB30 1216/1221 6000
EGKB
11.4nm S
TAF EGKB 121102Z 1212/1221 26008KT CAVOK BECMG 1212/1215 20010KT PROB30 1219/1221 6000 -SHRA BKN010
EGWU
17.8nm W
TAF EGWU 121048Z 1212/1306 25005KT CAVOK BECMG 1221/1223 19015KT -RA BKN012 PROB40 TEMPO 1223/1305 4000 RA BKN006 BECMG 1304/1306 27008KT NSW FEW012
EGLL
18.9nm SW
TAF EGLL 121103Z 1212/1318 21006KT CAVOK PROB40 TEMPO 1216/1222 7000 TEMPO 1222/1306 7000 -RA BKN012 PROB30 TEMPO 1300/1306 20015G25KT 3000 RADZ BKN005 TEMPO 1310/1316 22018G28KT 7000 SHRA BKN012 BECMG 1312/1315 27012KT PROB30 TEMPO 1313/1316 4000 +SHRA
EGSS
23.5nm N
TAF AMD EGSS 121214Z 1212/1318 22006KT 9000 FEW020 BECMG 1212/1215 9999 PROB30 1215/1218 6000 BECMG 1218/1221 6000 TEMPO 1221/1306 3000 RADZ BKN003 PROB30 TEMPO 1222/1302 23015G25KT PROB30 TEMPO 1302/1307 0300 FG BKN001 BECMG 1303/1305 28010KT BECMG 1306/1309 22012KT 9999 TEMPO 1310/1316 7000 SHRA BKN009
EGKK
23.8nm S
TAF EGKK 121101Z 1212/1318 23006KT CAVOK BECMG 1218/1221 BKN030 TEMPO 1221/1224 8000 RA BKN012 BECMG 1300/1303 BKN012 TEMPO 1300/1305 6000 RA BKN008 PROB30 TEMPO 1300/1305 19015G25KT 3000 RADZ BKN004 BECMG 1305/1308 BKN030 TEMPO 1310/1318 7000 SHRA BKN014 PROB30 TEMPO 1314/1317 26015G28KT 4000 +SHRA
Safelog

 

Dauntless Aviation

© 2007-2017 Dauntless Aviation, all rights reserved
Information provided via PilotNav comes from a variety of official and unofficial data sources. As errors are possible, do not use PilotNav for primary flight planning purposes. Verify any information that you receive via PilotNav with current and canonical charts and other official documents. The material in this database is subject to database copyrights held by Dauntless Aviation and may not be copied without the express permission of Dauntless Aviation - licenses for use of part of all of this data are available for purchase; enquire via the Dauntless Aviation helpdesk. A number of mechanisms and markers exist in the database to protect against and identify infringement / copyright. Automated queries against this website are stictly prohibited, and all activity is logged and analyzed.